Weather observations for the past three days for
Arlington Municipal Airport
Metric (Imperial)
Date Time (cdt) Wind (kph) Vis. (km) Weather Sky Cond. Temperature (ºC) Relative Humidity Wind Chill (°C) Heat Index (°C) Pressure Precipitation (cm)
Air Dwpt 6 hour altimeter (cm) sea level (mb) 1 hr 3 hr 6 hr
Max. Min.
01 11:53 SE 15 16.09 Fair CLR 35 20 41% 38 76.3 1016.0
01 10:53 Vrbl 9 16.09 Fair CLR 32.8 20.6 49% 36 76.33 1016.3
01 09:53 S 7 16.09 Fair CLR 31.7 21.1 53% 35 76.33 1016.3
01 08:53 SE 11 16.09 Fair CLR 28.9 21.7 65% 32 76.33 1016.5
01 07:53 Calm 16.09 A Few Clouds FEW110 26.7 20.6 69% 28 76.3 1016.1
01 06:53 Calm 16.09 A Few Clouds FEW110 25.6 20 30 25.6 71% 27 76.25 1015.4
01 05:53 SE 7 16.09 Fair CLR 26.7 20 67% 28 76.2 1014.9
01 04:53 S 6 16.09 Fair CLR 28.3 20 61% 30 76.2 1014.8
01 03:53 S 9 16.09 A Few Clouds FEW090 28.9 19.4 57% 30 76.2 1014.7
01 02:53 S 17 16.09 A Few Clouds FEW085 29.4 19.4 55% 31 76.2 1014.8
01 01:53 SE 11 16.09 Mostly Cloudy BKN085 29.4 17.8 50% 30 76.17 1014.5
01 00:53 SE 6 16.09 Fair CLR 27.2 17.2 36.7 26.7 54% 28 76.15 1014.0
31 23:53 Calm 16.09 Fair CLR 26.7 16.1 52% 27 76.12 1013.6
31 22:53 Calm 16.09 Fair CLR 27.8 15.6 47% 28 76.12 1013.6
31 21:53 Calm 16.09 Fair CLR 30 15 40% 30 76.1 1013.3
31 20:53 SE 6 16.09 Fair CLR 32.2 15 35% 32 76.05 1012.6
31 19:53 E 17 16.09 Fair CLR 35 15 30% 35 76.02 1012.4
31 18:53 SE 17 16.09 Fair CLR 36.7 15 38.3 35.6 27% 37 76.02 1012.2
31 17:53 SE 15 G 30 16.09 Fair CLR 37.2 15 27% 37 76.02 1012.4
31 16:53 SE 17 16.09 A Few Clouds FEW100 37.8 15 26% 38 76.05 1012.7
31 15:53 SE 26 16.09 A Few Clouds FEW085 37.8 15.6 27% 38 76.1 1013.4
31 14:53 SE 17 G 31 16.09 A Few Clouds FEW095 37.2 15 27% 37 76.15 1014.1
31 13:53 E 19 G 35 16.09 Mostly Cloudy SCT080 BKN100 36.7 16.7 31% 37 76.2 1014.6
31 12:53 SE 19 G 33 16.09 Fair CLR 35.6 17.8 36.1 25.6 35% 37 76.28 1015.7
31 11:53 S 13 16.09 Fair CLR 35 17.2 35% 36 76.33 1016.4
31 10:53 Calm 16.09 Fair CLR 32.8 17.8 41% 34 76.33 1016.4
31 09:53 Vrbl 9 16.09 Fair CLR 31.1 20.6 54% 34 76.3 1016.2
31 08:53 S 11 16.09 Fair CLR 28.3 21.1 65% 31 76.3 1016.0
31 07:53 S 13 16.09 Fair CLR 26.7 20.6 69% 28 76.23 1015.1
31 06:53 S 9 16.09 Fair CLR 25.6 20 29.4 25.6 71% 27 76.17 1014.5
31 05:53 S 9 16.09 Fair CLR 26.1 19.4 67% 27 76.15 1014.0
31 04:53 S 9 16.09 Fair CLR 27.2 19.4 62% 29 76.12 1013.9
31 03:53 S 9 16.09 Mostly Cloudy BKN095 27.8 18.3 56% 29 76.12 1013.6
31 02:53 S 9 16.09 Fair CLR 28.3 17.8 53% 29 76.1 1013.5
31 01:53 S 15 16.09 Fair CLR 29.4 16.7 46% 30 76.1 1013.5
31 00:53 S 7 16.09 Fair CLR 27.8 17.2 36.7 27.8 53% 28 76.12 1013.6
30 23:53 SE 6 16.09 Fair CLR 29.4 17.2 48% 30 76.1 1013.3
30 22:53 SE 7 16.09 Fair CLR 30.6 17.2 45% 31 76.07 1013.2
30 21:53 SE 9 16.09 A Few Clouds FEW090 32.2 17.2 41% 33 76.05 1012.8
30 20:53 SE 6 16.09 Fair CLR 33.3 16.7 37% 34 75.97 1011.9
30 19:53 SE 17 16.09 A Few Clouds FEW085 35.6 15.6 30% 36 75.95 1011.4
30 18:53 SE 17 16.09 Fair CLR 36.7 14.4 38.9 36.1 26% 36 75.97 1011.6
30 17:53 SE 19 G 33 16.09 Partly Cloudy SCT095 37.8 15 26% 38 75.97 1011.6
30 16:53 SE 26 G 37 16.09 A Few Clouds FEW095 37.8 14.4 25% 38 75.97 1011.8
30 15:53 E 26 G 35 16.09 Fair CLR 38.3 15 25% 38 76.02 1012.3
30 14:53 SE 15 G 39 16.09 Fair CLR 37.2 15 27% 37 76.07 1013.0
30 13:53 S 17 G 33 16.09 Fair CLR 37.8 16.1 28% 38 76.15 1013.9
30 12:53 SE 24 G 41 16.09 Fair CLR 36.7 16.1 36.7 25 29% 37 76.2 1014.8
30 11:53 SW 17 G 33 16.09 Fair CLR 35 17.2 35% 36 76.28 1015.7
30 10:53 S 15 G 31 16.09 Fair CLR 33.3 19.4 44% 35 76.3 1016.0
30 09:53 S 13 16.09 Fair CLR 30.6 20.6 55% 33 76.28 1015.9
30 08:53 S 9 16.09 Fair CLR 28.3 21.1 65% 31 76.28 1015.9
30 07:53 SE 6 16.09 Fair CLR 26.1 20.6 72% 28 76.25 1015.4
30 06:53 SE 6 16.09 Fair CLR 25.6 20 30 25.6 71% 27 76.17 1014.6
30 05:53 SE 9 16.09 Fair CLR 26.1 20 69% 27 76.15 1014.0
30 04:53 S 7 16.09 Fair CLR 26.1 19.4 67% 27 76.12 1013.8
30 03:53 S 7 16.09 Fair CLR 27.8 18.9 58% 29 76.12 1013.7
30 02:53 S 13 16.09 Fair CLR 29.4 18.3 51% 30 76.12 1013.6
30 01:53 S 9 16.09 Fair CLR 29.4 17.2 48% 30 76.12 1013.7
30 00:53 S 7 16.09 Fair CLR 29.4 17.2 37.8 28.9 48% 30 76.15 1014.0
29 23:53 SE 6 16.09 Fair CLR 30 16.7 45% 30 76.12 1013.9
29 22:53 SE 11 16.09 Fair CLR 31.7 16.7 41% 32 76.12 1013.8
29 21:53 SE 13 16.09 Fair CLR 33.3 16.7 37% 34 76.1 1013.3
29 20:53 SE 13 16.09 Fair CLR 33.9 16.7 36% 34 76.05 1012.8
29 19:53 E 13 16.09 Partly Cloudy SCT095 35.6 15.6 30% 36 76.02 1012.4
29 18:53 S 9 16.09 Fair CLR 37.8 15 38.9 36.1 26% 38 76.02 1012.4
29 17:53 SE 19 16.09 A Few Clouds FEW095 38.3 14.4 24% 38 76.02 1012.4
29 16:53 S 19 G 33 16.09 NULL NULL 38.9 15 24% 39 76.05 1012.7
29 15:53 E 15 G 31 16.09 A Few Clouds FEW090 38.3 16.1 27% 39 76.1 1013.6
29 14:53 E 20 G 31 16.09 A Few Clouds FEW085 37.8 15.6 27% 38 76.17 1014.4
29 13:53 SE 11 G 28 16.09 Fair CLR 36.7 16.7 31% 37 76.25 1015.4
29 12:53 SE 22 G 30 16.09 Fair CLR 36.1 17.2 36.7 23.9 33% 37 76.3 1016.1
Date Time (cdt) Wind (kph) Vis. (km) Weather Sky Cond. Air Dwpt Max. Min. Relative Humidity Wind Chill (°C) Heat Index (°C) altimeter (cm) sea level (mb) 1 hr 3 hr 6 hr
6 hour
Temperature (ºC) Pressure Precipitation (cm)